User: anonymous   Login
Location: Unspecified
(43.4680°N, 87.1740°E)
Time: 04:09:14
(UTC+00:00)
Language:

Cosmos 2154 Rocket - Orbit

View from above orbital plane
View from above orbital plane
View from above satellite
View from above satellite

Ground track
Ground track

The orbit data is extracted from the following two-line orbital elements,

1 21667U 91059B   21174.87774174 -.00000056  00000-0 -74783-4 0  9992
2 21667  82.9054 356.1436 0022001 120.8876 348.7112 13.75102363497408
Epoch (UTC): 23 June 2021 21:03:56
Eccentricity: 0.0022001
inclination: 82.9054°
perigee height: 965 km
apogee height: 997 km
right ascension of ascending node: 356.1436°
argument of perigee: 120.8876°
revolutions per day: 13.75102363
mean anomaly at epoch: 348.7112°
orbit number at epoch: 49740

The dashed part of the orbit path shows where the satellite is in the earth's shadow,  

DLR